Prestonsburg, KY

11:02 PM EST on February 18, 2018 (GMT -0500)
Prestonsburg

Weather History for KK22 - October, 2012

Change the Weather History Date:

Sunday, October 14, 2012

  Actual Average (KJKL) Record (KJKL)
Temperature  
Mean Temperature 66 °F -  
Max Temperature 75 °F 66 °F 82 °F (2017)
Min Temperature 57 °F 46 °F 28 °F (1988)
Cooling Degree Days 1    
Growing Degree Days 16 (Base 50)    
Moisture  
Dew Point 53 °F    
Average Humidity 64    
Maximum Humidity 84    
Minimum Humidity 51    
Precipitation  
Precipitation 0.00 in - - ()
Sea Level Pressure  
Sea Level Pressure 30.08 in    
Wind  
Wind Speed 8 mph ()    
Max Wind Speed 23 mph    
Max Gust Speed 37 mph    
Visibility 10.0 miles    
Events Rain    
Averages and records for this station are not official NWS values.
T = Trace of Precipitation, MM = Missing Value Source: Averaged Metar Reports

Daily Weather History Graph

Daily Weather History Graph

Search for Another Location

Airport or City:

Trip Planner

Search our weather history database for the weather conditions in past years. The results will help you decide how hot, cold, wet, or windy it might be!

Date:

Astronomy

Oct. 14, 2012 Rise Set
Actual Time 7:38 AM EDT 6:53 PM EDT
Civil Twilight 7:12 AM EDT 7:20 PM EDT
Nautical Twilight 6:41 AM EDT 7:50 PM EDT
Astronomical Twilight 6:11 AM EDT 8:20 PM EDT
Moon 6:36 AM EDT (10/14) 6:13 PM EDT (10/14)
Length of Visible Light 12h 08m
Length of Day
11h 15m
Waning Crescent, 1% of the Moon is Illuminated
Oct 14
Waning Crescent
Oct 15
New
Oct 21
First Quarter
Oct 29
Full
Nov 6
Last Quarter

Hourly Weather History & Observations

Time (EDT) Temp. Dew Point Humidity Pressure Visibility Wind Dir Wind Speed Gust Speed Precip Events Conditions
12:15 AM 64.4 °F 52.5 °F 65% 30.20 in 10.0 mi South 8.1 mph - N/A   Clear
12:35 AM 63.7 °F 52.3 °F 67% 30.20 in 10.0 mi South 6.9 mph - N/A   Clear
1:15 AM 62.1 °F 52.0 °F 70% 30.20 in 10.0 mi South 4.6 mph - N/A   Clear
1:35 AM 62.6 °F 51.8 °F 68% 30.18 in 10.0 mi South 8.1 mph - N/A   Clear
1:55 AM 62.6 °F 51.3 °F 66% 30.18 in 10.0 mi South 6.9 mph - N/A   Clear
2:15 AM 62.1 °F 51.1 °F 67% 30.18 in 10.0 mi South 5.8 mph - N/A   Clear
2:35 AM 61.7 °F 50.9 °F 68% 30.17 in 10.0 mi South 6.9 mph - N/A   Clear
2:55 AM 61.7 °F 50.4 °F 66% 30.17 in 10.0 mi South 5.8 mph - N/A   Clear
3:35 AM 60.4 °F 50.0 °F 68% 30.17 in 10.0 mi South 6.9 mph - N/A   Clear
3:55 AM 60.8 °F 49.6 °F 67% 30.15 in 10.0 mi South 8.1 mph - N/A   Clear
4:15 AM 60.8 °F 49.3 °F 66% 30.16 in 10.0 mi South 6.9 mph - N/A   Clear
4:35 AM 60.1 °F 49.3 °F 67% 30.16 in 10.0 mi South 6.9 mph - N/A   Clear
4:55 AM 59.9 °F 49.1 °F 67% 30.16 in 10.0 mi South 6.9 mph - N/A   Clear
5:15 AM 59.9 °F 48.7 °F 67% 30.16 in 10.0 mi South 6.9 mph - N/A   Clear
5:35 AM 59.5 °F 48.6 °F 67% 30.16 in 10.0 mi South 5.8 mph - N/A   Clear
5:55 AM 59.2 °F 48.6 °F 68% 30.17 in 10.0 mi South 5.8 mph - N/A   Clear
6:15 AM 59.0 °F 48.4 °F 68% 30.17 in 10.0 mi South 6.9 mph - N/A   Clear
6:35 AM 58.8 °F 48.2 °F 68% 30.17 in 10.0 mi SSE 6.9 mph - N/A   Clear
6:55 AM 58.3 °F 48.2 °F 69% 30.17 in 10.0 mi SSE 6.9 mph - N/A   Clear
7:15 AM 58.6 °F 48.2 °F 68% 30.16 in 10.0 mi SSE 5.8 mph - N/A   Mostly Cloudy
7:35 AM 58.3 °F 48.2 °F 69% 30.17 in 10.0 mi SSE 5.8 mph - N/A   Mostly Cloudy
7:55 AM 57.9 °F 48.2 °F 70% 30.16 in 10.0 mi SSE 5.8 mph - N/A   Scattered Clouds
8:15 AM 58.3 °F 48.4 °F 70% 30.16 in 10.0 mi SSE 6.9 mph - N/A   Clear
8:35 AM 58.5 °F 48.6 °F 70% 30.17 in 10.0 mi South 6.9 mph - N/A   Clear
8:55 AM 58.6 °F 48.6 °F 69% 30.17 in 10.0 mi South 5.8 mph - N/A   Clear
9:15 AM 60.4 °F 49.1 °F 66% 30.17 in 10.0 mi South 9.2 mph - N/A   Clear
9:35 AM 61.7 °F 49.5 °F 64% 30.16 in 10.0 mi South 9.2 mph - N/A   Clear
9:55 AM 62.8 °F 50.0 °F 63% 30.16 in 10.0 mi South 9.2 mph - N/A   Clear
10:15 AM 64.2 °F 50.9 °F 62% 30.17 in 10.0 mi South 8.1 mph - N/A   Clear
10:35 AM 65.7 °F 51.6 °F 60% 30.17 in 10.0 mi SSW 6.9 mph - N/A   Clear
10:55 AM 67.5 °F 52.7 °F 59% 30.17 in 10.0 mi SW 5.8 mph - N/A   Clear
11:15 AM 67.5 °F 52.9 °F 59% 30.17 in 10.0 mi SW 10.4 mph 20.7 mph N/A   Clear
11:35 AM 69.1 °F 53.6 °F 58% 30.16 in 10.0 mi SW 16.1 mph 21.9 mph N/A   Clear
11:55 AM 68.9 °F 54.0 °F 59% 30.15 in 10.0 mi SSW 16.1 mph 23.0 mph N/A   Clear
12:15 PM 71.2 °F 55.4 °F 57% 30.14 in 10.0 mi SW 10.4 mph 19.6 mph N/A   Scattered Clouds
12:35 PM 71.6 °F 55.4 °F 57% 30.13 in 10.0 mi SW 12.7 mph 23.0 mph N/A   Mostly Cloudy
12:55 PM 71.6 °F 55.6 °F 57% 30.12 in 10.0 mi SW 15.0 mph 28.8 mph N/A   Mostly Cloudy
1:15 PM 72.3 °F 55.8 °F 56% 30.11 in 10.0 mi SW 23.0 mph 36.8 mph N/A   Scattered Clouds
1:35 PM 72.9 °F 55.8 °F 55% 30.10 in 10.0 mi SSW 15.0 mph 24.2 mph N/A   Scattered Clouds
1:55 PM 73.8 °F 55.9 °F 54% 30.08 in 10.0 mi South 16.1 mph 21.9 mph N/A   Scattered Clouds
2:35 PM 75.4 °F 55.9 °F 51% 30.06 in 10.0 mi SW 12.7 mph 26.5 mph N/A   Scattered Clouds
2:55 PM 75.2 °F 55.9 °F 51% 30.03 in 10.0 mi SW 16.1 mph 26.5 mph N/A   Scattered Clouds
3:15 PM 75.4 °F 56.1 °F 51% 30.02 in 10.0 mi SSW 17.3 mph 25.3 mph N/A   Scattered Clouds
3:35 PM 73.6 °F 55.8 °F 54% 30.02 in 10.0 mi SSW 12.7 mph 28.8 mph N/A   Scattered Clouds
4:15 PM 73.6 °F 55.4 °F 53% 29.98 in 10.0 mi SSW 17.3 mph 24.2 mph N/A   Clear
4:35 PM 73.4 °F 55.6 °F 54% 29.98 in 10.0 mi SSW 10.4 mph 25.3 mph N/A   Clear
4:55 PM 73.4 °F 55.6 °F 54% 29.98 in 10.0 mi SSW 18.4 mph 24.2 mph N/A   Clear
5:15 PM 73.4 °F 55.6 °F 54% 29.98 in 10.0 mi SSW 13.8 mph 21.9 mph N/A   Clear
5:35 PM 72.5 °F 55.4 °F 55% 29.97 in 10.0 mi SSW 16.1 mph 19.6 mph N/A   Scattered Clouds
5:55 PM 72.1 °F 55.6 °F 56% 29.96 in 10.0 mi South 10.4 mph - N/A   Scattered Clouds
6:15 PM 72.0 °F 55.4 °F 56% 29.96 in 10.0 mi SSW 10.4 mph 16.1 mph N/A   Mostly Cloudy
6:35 PM 71.6 °F 55.4 °F 57% 29.95 in 10.0 mi SSW 11.5 mph - N/A   Scattered Clouds
6:55 PM 71.2 °F 55.4 °F 57% 29.95 in 10.0 mi SSW 10.4 mph 17.3 mph N/A   Scattered Clouds
7:15 PM 71.1 °F 55.6 °F 58% 29.95 in 10.0 mi SW 12.7 mph 21.9 mph N/A   Scattered Clouds
7:35 PM 70.3 °F 55.8 °F 60% 29.95 in 10.0 mi SSW 11.5 mph 17.3 mph N/A   Mostly Cloudy
8:15 PM 70.2 °F 56.3 °F 61% 29.94 in 10.0 mi SSW 10.4 mph 18.4 mph N/A   Mostly Cloudy
8:35 PM 70.2 °F 56.3 °F 61% 29.93 in 10.0 mi SSW 12.7 mph 18.4 mph N/A   Mostly Cloudy
8:55 PM 70.2 °F 56.7 °F 62% 29.93 in 10.0 mi SSW 15.0 mph 18.4 mph N/A   Overcast
9:15 PM 70.7 °F 57.0 °F 62% 29.93 in 10.0 mi SSW 15.0 mph 26.5 mph N/A   Overcast
9:35 PM 70.3 °F 57.6 °F 64% 29.93 in 10.0 mi SW 9.2 mph 18.4 mph N/A   Overcast
9:55 PM 69.6 °F 58.5 °F 68% 29.94 in 10.0 mi SSW 18.4 mph 26.5 mph N/A Rain Rain
10:15 PM 66.2 °F 60.4 °F 82% 29.94 in 10.0 mi SW 9.2 mph 18.4 mph N/A   Overcast
10:35 PM 65.7 °F 60.8 °F 84% 29.93 in 10.0 mi SSW 8.1 mph - N/A   Overcast
10:55 PM 65.7 °F 60.3 °F 83% 29.94 in 10.0 mi SSW 8.1 mph - N/A   Overcast
11:15 PM 66.4 °F 59.9 °F 80% 29.93 in 10.0 mi SSW 10.4 mph - N/A   Overcast
11:35 PM 66.4 °F 60.1 °F 80% 29.93 in 10.0 mi SW 8.1 mph - N/A   Overcast
11:55 PM 66.4 °F 60.3 °F 81% 29.92 in 10.0 mi SW 8.1 mph - N/A   Overcast